Regional Weather Roundup
Issued by NWS

Home | Current Version | Previous Version | Graphics & Text | Print | Product List | Glossary On
Versions: 1 2 3 4 5 6 7 8 9 10 11 12 13 14 15 16 17 18 19 20 21 22 23 24 25 26 27 28 29 30 31 32 33 34 35 36 37 38 39 40 41 42 43 44 45 46 47 48 49 50
000
ASUS43 KDMX 191407
RWRIA

WEATHER ROUNDUP FOR IOWA
NATIONAL WEATHER SERVICE DES MOINES IA
800 AM CST FRI DEC 19 2014

NOTE: "FAIR" INDICATES FEW OR NO CLOUDS BELOW 12,000 FEET WITH NO
SIGNIFICANT WEATHER AND/OR OBSTRUCTIONS TO VISIBILITY.

* - THESE STATIONS ARE NOT NWS STATIONS...THUS NOT UNDER NWS
QUALITY CONTROL.  THEY ALSO DO NOT REPORT WEATHER SUCH
AS PRECIPITATION OR FOG.

IAZ001>003-012>014-020>022-031>034-043>046-191500-
   NORTHWEST IOWA

CITY           SKY/WX    TMP DP  RH WIND       PRES   REMARKS
CARROLL *      CLOUDY    30  30 100 S6        30.22S FOG     WCI  24
CHEROKEE *     CLOUDY    30  30 100 S5        30.20S FOG     WCI  25
DENISON *      CLOUDY    30  30 100 S7        30.20R FOG     WCI  23
LE MARS *      CLOUDY    30  30 100 S7        30.19S FOG     WCI  23
ORANGE CITY *  CLOUDY    30  28  93 S8        30.17S FOG     WCI  23
SHELDON *      CLOUDY    28  28 100 S8        30.16S FOG     WCI  20
SIOUX CITY     CLOUDY    31  28  89 SE8       30.20S FOG     WCI  23
SPENCER        CLOUDY    30  27  88 S8        30.19S FOG     WCI  22
STORM LAKE *   CLOUDY    28  28 100 S7        30.20S FOG     WCI  21
$$

IAZ055>058-069>071-079>083-090>094-191500-
   SOUTHWEST IOWA

CITY           SKY/WX    TMP DP  RH WIND       PRES   REMARKS
ATLANTIC *     CLOUDY    30  30 100 S6        30.23R FOG     WCI  24
AUDUBON *      MOCLDY    30  25  80 CALM      30.23R HAZE
CLARINDA *     CLOUDY    30  30 100 CALM      30.26S FOG
COUNCIL BLFS * CLOUDY    30  30 100 S6        30.21R FOG     WCI  24
CRESTON *      CLOUDY    28  28 100 SE3       30.23S FOG
HARLAN  *      CLOUDY    30  30 100 S6        30.26S FOG     WCI  24
LAMONI         CLOUDY    28  26  92 E3        30.24S FOG
RED OAK *      CLOUDY    30  30 100 CALM      30.24S FOG
SHENANDOAH *   CLOUDY    30  30 100 S3        30.25S FOG
$$

IAZ047>049-059>061-072>074-084-191500-
   CENTRAL IOWA

CITY           SKY/WX    TMP DP  RH WIND       PRES   REMARKS
AMES           CLOUDY    27  24  89 SE3       30.26S FOG
ANKENY *       CLOUDY    28  27  93 SE3       30.27S FOG
CHARITON *     CLOUDY    28  27  93 E5        30.25F FOG     WCI  23
DES MOINES     CLOUDY    29  25  85 CALM      30.26F FOG
GRINNELL*      CLOUDY    27  23  86 SE5       30.27S WCI  21
KNOXVILLE *    CLOUDY    27  25  93 E5        30.26S FOG     WCI  21
MARSHALLTOWN   CLOUDY    25  22  88 SE6       30.26S WCI  18
PELLA *        MOCLDY    28  25  86 SE5       30.29S FOG     WCI  23
PERRY *        CLOUDY    28  28 100 SE5       30.25R FOG     WCI  23
$$

IAZ004>006-015-016-023>025-035-036-191500-
   NORTH CENTRAL IOWA

CITY           SKY/WX    TMP DP  RH WIND       PRES   REMARKS
ALGONA *       CLOUDY    27  27 100 S8        30.22S FOG     WCI  18
CLARION *      CLOUDY    27  27 100 S7        30.24S FOG     WCI  19
ESTHERVILLE    CLOUDY    26  25  96 S9        30.19S FOG     WCI  17
FORT DODGE *   CLOUDY    27  25  93 S5        30.24S WCI  21
MASON CITY     CLOUDY    25  21  85 SE7       30.25S WCI  17
FOREST CITY *  CLOUDY    27  23  86 SE6       30.23S FOG     WCI  20
IOWA FALLS *   CLOUDY    27  23  86 SE6       30.26S WCI  20
$$

IAZ007>011-017>019-026>030-037>042-050>054-066-191500-
   NORTHEAST IOWA

CITY           SKY/WX    TMP DP  RH WIND       PRES   REMARKS
CEDAR RAPIDS   CLOUDY    22  20  92 SE3       30.29R FOG
CHARLES CITY * CLOUDY    25  21  86 SE6       30.26F WCI  18
CLINTON *      PTCLDY    12   9  85 CALM      30.34R
DECORAH *      CLOUDY    25  19  80 SE5       30.26S WCI  19
DUBUQUE        CLOUDY    24  19  81 CALM      30.28R
MONTICELLO *   CLOUDY    23  23 100 CALM      30.29S
OELWEIN *      CLOUDY    23  21  93 SE3       30.28S
WATERLOO       CLOUDY    25  20  81 SE5       30.28R WCI  19
$$

IAZ064-065-067-068-078-191500-
   EAST CENTRAL IOWA

CITY           SKY/WX    TMP DP  RH WIND       PRES   REMARKS
DAVENPORT      CLOUDY    18  14  84 CALM      30.31S
IOWA CITY      PTCLDY    20  18  92 SE3       30.32S
MT. PLEASANT * CLOUDY    27  23  86 E3        30.31R
MUSCATINE *    CLEAR     23  19  86 CALM      30.33S
QUAD CITIES    PTCLDY    15  12  88 CALM      30.32S
$$

IAZ062-063-075>077-085>089-095>099-191500-
   SOUTHEAST IOWA

CITY           SKY/WX    TMP DP  RH WIND       PRES   REMARKS
BURLINGTON     CLOUDY    27  22  81 E5        30.30R WCI  22
FAIRFIELD *    CLOUDY    27  23  86 E5        30.30R WCI  21
FORT MADISON * CLOUDY    28  25  86 E3        30.31R
KEOKUK *       CLOUDY    28  25  86 E3        30.30R
OSKALOOSA *    CLOUDY    27  25  93 E5        30.29S WCI  21
CENTERVILLE *  CLOUDY    27  27 100 E3        30.27S
OTTUMWA        CLOUDY    27  23  85 E5        30.28R WCI  22
WASHINGTON *   CLOUDY    27  27 100 E5        30.30S WCI  21
$$

ABBREVIATIONS USED IN REMARKS
   TC - TEMPERATURES IN CELSIUS
  WCI - WIND CHILL INDEX
   HX - HEAT INDEX
  VSB - VISIBILITY
$$




USA.gov is the U.S. government's official web portal to all federal, state and local government web resources and services.